Flag for Germany Weather past 2 weeks in Singen (Hohentwiel), Baden-Württemberg, Germany

Now
60 °F

Scattered clouds.


Feels Like: 60 °F
Forecast: 44 / 74 °F
Wind: 1 mph from West

Location: Konstanz

Current Time: Jul 30, 2015 at 10:49:08 AM

Latest Report: Jul 30, 2015 at 10:00 AM


Visibility: 14 mi

Pressure: 30.02 "Hg

Humidity: 70%

Dew point: 49 °F

Location of Singen (Hohentwiel)Location

Historic Weather in Singen (Hohentwiel) — Graph

°F

Singen (Hohentwiel) temperature yesterday

Maximum temperature yesterday: 63 °F (at 4:00 PM)
Minimum temperature yesterday: 55 °F (at 11:00 PM)
Average temperature yesterday: 60 °F

Past Weeks' High & Low Weather Summary

 TemperatureHumidityPressure
High95 °F (Jul 22, 5:00 PM)97% (Jul 30, 7:00 AM)30.14 "Hg (Jul 30, 7:00 AM)
Low51 °F (Jul 30, 5:00 AM)22% (Jul 22, 5:00 PM)29.66 "Hg (Jul 24, 7:00 PM)
Average72 °F63%29.93 "Hg
* Reported Jul 15 10:00 AM — Jul 30 10:00 AM, Singen (Hohentwiel), Weather by CustomWeather, © 2015

Note: Actual official high and low records may vary slightly from our data, if they occured in-between our weather recording intervals... More about our weather records

Advertising

Singen (Hohentwiel) weather history for previous 24 hours

 ConditionsComfort  
Time TempWeatherWind HumidityBarometerVisibility
10:00 AM
Thu, Jul 30
60 °FScattered clouds.1 mph70%30.02 "Hg14 mi
9:00 AM55 °FLow clouds.1 mph88%30.04 "Hg9 mi
8:00 AM54 °FFog.2 mph93%30.03 "Hg3 mi
7:00 AM52 °FFog.1 mph97%30.03 "Hg2 mi
5:00 AM51 °FPassing clouds.1 mph93%30.02 "Hg9 mi
4:00 AM53 °FPassing clouds.1 mph93%30.02 "Hg19 mi
3:00 AM54 °FOvercast.1 mph90%30.02 "Hg43 mi
2:00 AM54 °FOvercast.1 mph88%30.02 "Hg43 mi
1:00 AM54 °FOvercast.1 mph87%30.02 "Hg43 mi
12:00 AM55 °FClear.2 mph88%30.02 "Hg43 mi
11:00 PM
Wed, Jul 29
55 °FClear.1 mph84%30.01 "Hg43 mi
10:00 PM58 °FOvercast.2 mph75%29.99 "Hg43 mi
9:00 PM59 °FOvercast.2 mph77%29.96 "Hg22 mi
8:00 PM60 °FOvercast.3 mph78%29.93 "Hg19 mi
7:00 PM61 °FLight rain. Overcast.5 mph83%29.90 "Hg12 mi
6:00 PM63 °FLight rain. Low clouds.5 mph83%29.87 "Hg11 mi
5:00 PM62 °FSprinkles. Low clouds.5 mph85%29.86 "Hg9 mi
4:00 PM63 °FOvercast.3 mph85%29.85 "Hg12 mi
3:00 PM61 °FLight rain. Overcast.5 mph85%29.85 "Hg6 mi
2:00 PM60 °FLight rain. Low clouds.3 mph88%29.85 "Hg5 mi
1:00 PM59 °FLight rain. Overcast.5 mph89%29.85 "Hg3 mi
12:00 PM62 °FLight rain. Overcast.2 mph78%29.83 "Hg11 mi
11:00 AM62 °FLight rain. Overcast.1 mph78%29.84 "Hg9 mi
10:00 AM61 °FOvercast.2 mph80%29.84 "Hg19 mi
Weather by CustomWeather, © 2015

See weather overviewHow to use our weather pages